AirNav   Air Wisconsin pilot careers
 
 464 users online  

9K8 Kingman Airport - Clyde Cessna Field
Kingman, Kansas, USA

GOING TO KINGMAN?


FAA INFORMATION EFFECTIVE 19 JULY 2018

Location

FAA Identifier: 9K8
Lat/Long: 37-40-08.5000N / 098-07-26.0000W
37-40.141667N / 098-07.433333W
37.6690278 / -98.1238889
(estimated)
Elevation: 1606.7 ft. / 489.7 m (surveyed)
Variation: 06E (2005)
From city: 1 mile NW of KINGMAN, KS
Time zone: UTC -5 (UTC -6 during Standard Time)
Zip code: 67068

Airport Operations

Airport use: Open to the public
Activation date: 08/1945
Control tower: no
ARTCC: KANSAS CITY CENTER
FSS: WICHITA FLIGHT SERVICE STATION
NOTAMs facility: ICT (NOTAM-D service available)
Attendance: MON-FRI 0830-2000
Pattern altitude: 2406.7 ft. MSL
Wind indicator: lighted
Segmented circle: yes
Lights: ACTVT HIRL RY 18/36; PAPI RYS 18 & 36; REIL RYS 18 & 36 - CTAF.
Beacon: white-green (lighted land airport)
Operates sunset to sunrise.

Airport Communications

CTAF/UNICOM: 122.8
WX AWOS-3: 119.325 (620-532-1272)
WICHITA APPROACH: 125.5
WICHITA DEPARTURE: 125.5

Nearby radio navigation aids

VOR radial/distance  VOR name  Freq  Var
HUTr201/21.6HUTCHINSON VOR/DME116.8004E
ICTr253/26.0WICHITA VORTAC113.8007E
ANYr357/30.7ANTHONY VORTAC112.9007E

 
NDB name  Hdg/Dist  Freq  Var  ID
PRATT090/29.835607EPTT .--. - -

Airport Services

Fuel available: 100LL JET-A
SELF SVC FUEL AVBL WITH CREDIT CARD.
Parking: hangars and tiedowns
Airframe service: MAJOR
Powerplant service: MAJOR
Bottled oxygen: NONE
Bulk oxygen: NONE

Runway Information

Runway 18/36

Dimensions: 4300 x 75 ft. / 1311 x 23 m
Surface: concrete, in fair condition
Weight bearing capacity: 
Single wheel: 30.0
Double wheel: 30.0
Runway edge lights: high intensity
RUNWAY 18  RUNWAY 36
Latitude: 37-40.435357N37-39.734017N
Longitude: 098-07.279293W098-07.406043W
Elevation: 1598.9 ft.1596.7 ft.
Traffic pattern: rightleft
Runway heading: 182 magnetic, 188 true002 magnetic, 008 true
Markings: nonprecision, in good conditionnonprecision, in good condition
Visual slope indicator: 4-light PAPI on left (3.00 degrees glide path)4-light PAPI on left (3.00 degrees glide path)
Runway end identifier lights: yesyes
Touchdown point: yes, no lightsyes, no lights
Obstructions: 15 ft. road, 550 ft. from runway, 24:1 slope to clear45 ft. trees, 1290 ft. from runway, 24:1 slope to clear

Runway 11/29

Dimensions: 3400 x 60 ft. / 1036 x 18 m
Surface: concrete, in good condition
Weight bearing capacity: 
Single wheel: 30.0
Double wheel: 30.0
RUNWAY 11  RUNWAY 29
Latitude: 37-40.336685N37-40.087660N
Longitude: 098-07.864075W098-07.232798W
Elevation: 1606.7 ft.1592.6 ft.
Gradient: 0.5% UP
Traffic pattern: leftright
Runway heading: 111 magnetic, 117 true291 magnetic, 297 true
Markings: nonprecision, in fair conditionnonprecision, in fair condition
Touchdown point: yes, no lightsyes, no lights
Obstructions: 29 ft. trees, 1350 ft. from runway, 39:1 slope to clear35 ft. trees, 420 ft. from runway, 6:1 slope to clear

Airport Ownership and Management from official FAA records

Ownership: Publicly-owned
Owner: CITY OF KINGMAN
RT 1, BOX 162
KINGMAN, KS 67068
Phone 620-532-3111
Manager: EMILY CLOUSE
RT 1, BOX 162
KINGMAN, KS 67068
Phone (620) 532-3111
CITY MANAGER

Airport Operational Statistics

Aircraft based on the field: 25
Single engine airplanes: 25
    
Aircraft operations: avg 26/day *
60% local general aviation
40% transient general aviation
* for 12-month period ending 26 June 2015

Instrument Procedures

NOTE: All procedures below are presented as PDF files. If you need a reader for these files, you should download the free Adobe Reader.

NOT FOR NAVIGATION. Please procure official charts for flight.
FAA instrument procedures published for use from 19 July 2018 at 0901Z to 16 August 2018 at 0900Z.

 
IAPs - Instrument Approach Procedures
RNAV (GPS) RWY 18   download (190KB)
RNAV (GPS) RWY 36   download (209KB)
NOTE: Special Take-Off Minimums/Departure Procedures apply   download (147KB)

Other nearby airports with instrument procedures:

8K2 - Harper Municipal Airport (24 nm S)
KHUT - Hutchinson Regional Airport (27 nm NE)
KPTT - Pratt Regional Airport (30 nm W)
KANY - Anthony Municipal Airport (31 nm S)
KICT - Wichita Dwight D Eisenhower National Airport (33 nm E)
 
Loc | Ops | Rwys | IFR | FBO | Links
Com | Nav | Svcs | Stats | Notes

Kansas City Aviation Department
 
Area around 9K8 (Kingman Airport - Clyde Cessna Field)
 
Road maps at: MapQuest Bing Google
 
Aerial photo
WARNING: Photo may not be current or correct
Aerial photo of 9K8 (Kingman Airport - Clyde Cessna Field)
Do you have a better or more recent aerial photo of Kingman Airport - Clyde Cessna Field that you would like to share? If so, please send us your photo.

 
Sectional chart

 
Airport distance calculator
Flying to Kingman Airport - Clyde Cessna Field? Find the distance to fly.

From to 9K8

Sunrise and sunset
Times for 14-Aug-2018
 Local
(UTC-5)
 Zulu
(UTC)
Morning civil twilight06:2011:20
Sunrise06:4811:48
Sunset20:2601:26
Evening civil twilight20:5401:54

Current date and time
Zulu (UTC)  14-Aug-2018 07:06:17
Local (UTC-5)  14-Aug-2018 02:06:17
 
METAR
8K2 
24nm S 
SuperAWOS
140635Z AUTO 10SM 20/19 A2996
KHUT 
27nm NE 
140652Z AUTO 12004KT 10SM FEW029 FEW070 21/21 A2991 RMK AO2 SLP109 T02060206
KPTT 
30nm W 
140655Z AUTO 00000KT 10SM OVC085 18/18 A2994 RMK AO2 T01820177
KP28 
31nm SW 
140656Z AUTO 16003KT 19/19 A2992 RMK AO1 SLP120 T01890189
KICT 
33nm E 
140653Z 15006KT 8SM OVC005 22/22 A2991 RMK AO2 SLP116 T02220217 $
KLYO 
41nm N 
140655Z AUTO 23005KT 10SM SCT003 OVC012 19/19 A2994 RMK AO2 T01920189
KIAB 
41nm E 
140656Z AUTO 18006KT 10SM OVC003 21/21 A2992 RMK AO2 SLP123 T02140210 $
KBEC 
43nm E 
140655Z AUTO 17006KT 10SM OVC004 21/21 A2992 RMK AO2 LTG DSNT W T02100205
KAAO 
43nm E 
140654Z AUTO 16005KT 10SM OVC004 21/21 A2992 RMK AO2 RAE00 SLP119 P0000 T02110211
KEWK 
46nm NE 
140656Z AUTO 17006KT 5SM BR OVC003 20/20 A2994 RMK AO2 SLP123 T02000200
TAF
KHUT 
27nm NE 
140520Z 1406/1506 VRB05KT 6SM -SHRA SCT015 BKN030 TEMPO 1406/1410 6SM BR SCT008 BKN015 OVC030 FM141000 VRB04KT 5SM BR VCSH SCT008 OVC015 FM141400 VRB05KT 6SM -SHRA OVC035 FM142100 25009KT P6SM VCSH BKN050 FM150000 26007KT P6SM BKN090
KICT 
33nm E 
140520Z 1406/1506 16007KT P6SM VCSH BKN008 OVC015 TEMPO 1406/1410 4SM SHRA FEW008 SCT015 BKN035 FM141000 VRB05KT 6SM -SHRA OVC025 FM141800 21007KT 6SM -SHRA SCT035 BKN080 FM150000 22006KT P6SM BKN090
NOTAMs
Click for the latest NOTAMs
NOTAMs are issued by the DoD/FAA and will open in a separate window not controlled by AirNav.

 

 
 

FBO, Fuel Providers, and Aircraft Ground Support

  
 Business Name 
 
 Contact 
 
 Services / Description 
 
Fuel Prices
 
Comments
  
City of Kingman 620-532-1279
[email]
Aviation fuel, Aircraft parking (ramp or tiedown), Flight training, Aircraft rental, Courtesy transportation, Pilots lounge / snooze room, Restrooms

More info about City of Kingman
independent
100LL Jet A
SS $4.69 $3.25 
 Updated 09-Aug-2018
 
   write
SS=Self service
Update Fuel Prices
 

Would you like to see your business listed on this page?

 If your business provides an interesting product or service to pilots, flight crews, aircraft, or users of the Kingman Airport - Clyde Cessna Field, you should consider listing it here.  To start the listing process, click on the button below
 
Add a business
 

Other Pages about Kingman Airport - Clyde Cessna Field

skyways.lib.ks.us/...
 
Update a link
 
Copyright © AirNav, LLC. All rights reserved. Privacy Policy  Contact